Regional Weather Roundup
Issued by NWS

Home | Current Version | Previous Version | Graphics & Text | Print | Product List | Glossary Off
Versions: 1 2 3 4 5 6 7 8 9 10 11 12 13 14 15 16 17 18 19 20 21 22 23 24 25 26 27 28 29 30 31 32 33 34 35 36 37 38 39 40 41 42 43 44 45 46 47 48 49 50

000
ASUS43 KDMX 162001
RWRIA

WEATHER ROUNDUP FOR IOWA
NATIONAL WEATHER SERVICE DES MOINES IA
200 PM CST MON JAN 16 2017

NOTE: "FAIR" INDICATES FEW OR NO CLOUDS BELOW 12,000 FEET WITH NO
SIGNIFICANT WEATHER AND/OR OBSTRUCTIONS TO VISIBILITY.

* - THESE STATIONS ARE NOT NWS STATIONS...THUS NOT UNDER NWS
QUALITY CONTROL.  THEY ALSO DO NOT REPORT WEATHER SUCH
AS PRECIPITATION OR FOG.

IAZ001>003-012>014-020>022-031>034-043>046-162100-
   NORTHWEST IOWA

CITY           SKY/WX    TMP DP  RH WIND       PRES   REMARKS
CARROLL *      LGT RAIN  34  34 100 NE9       29.91F VSB 1   WCI  26
CHEROKEE *     MIX PCPN  32  32 100 NE7       29.95F WCI  26
DENISON *      CLOUDY    32  32 100 NE9       29.88F FOG     WCI  24
LE MARS *      LGT RAIN  32  32 100 NE9       29.97F WCI  24
ORANGE CITY *  MIX PCPN  30  30 100 NE6       29.95F WCI  24
SHELDON *      LGT RAIN  30  32 100 NE10      29.95F VSB 1   WCI  21
SIOUX CITY     LGT RAIN  34  31  88 N12       29.95F FOG     WCI  25
SPENCER        FRZ RAIN  32  30  92 NE13      29.96F WCI  22
STORM LAKE *   LGT RAIN  32  30  93 NE15      29.93F WCI  22
$$

IAZ055>058-069>071-079>083-090>094-162100-
   SOUTHWEST IOWA

CITY           SKY/WX    TMP DP  RH WIND       PRES   REMARKS
ATLANTIC *     CLOUDY    34  34 100 NE6       29.88F FOG     WCI  29
AUDUBON *      CLOUDY    34  30  86 E5        29.90S WCI  30
CLARINDA *     CLOUDY    36  36 100 VRB5      29.87F WCI  32
COUNCIL BLFS * LGT RAIN  32  32 100 N8        29.88F WCI  25
CRESTON *      FOG       32  32 100 E9        29.86F VSB 3/4 WCI  24
HARLAN  *      CLOUDY    34  32  93 NE6       29.92F WCI  29
LAMONI         FOG       34  34 100 E5        29.85F VSB 1/4 WCI  30
RED OAK *      MIX PCPN  34  34 100 NE6       29.86F WCI  29
SHENANDOAH *   CLOUDY    36  34  93 NE6       29.86F FOG     WCI  31
$$

IAZ047>049-059>061-072>074-084-162100-
   CENTRAL IOWA

CITY           SKY/WX    TMP DP  RH WIND       PRES   REMARKS
AMES           LGT RAIN  33  33 100 E6        29.92F FOG     WCI  28
ANKENY *       RAIN      32  32 100 MISG      29.92F
BOONE *        MIX PCPN  32  32 100 MISG      29.91S VSB 1
CHARITON *     CLOUDY    34  32  93 E7        29.88F FOG     WCI  28
DES MOINES     DRIZZLE   34  32  92 E6        29.90F WCI  29
GRINNELL*      HVY RAIN  33  32  97 E6        29.92F WCI  27
KNOXVILLE *    LGT RAIN  34  32  93 SE6       29.88F WCI  29
MARSHALLTOWN   LGT RAIN  33  33 100 E12       29.92F FOG     WCI  24
NEWTON *       CLOUDY    32  32 100 E10       29.90F FOG     WCI  24
PELLA *        CLOUDY    33  33  98 SE8       29.91F WCI  27
PERRY *        LGT RAIN  33  33 100 NE3       29.91F
$$

IAZ004>006-015-016-023>025-035-036-162100-
   NORTH CENTRAL IOWA

CITY           SKY/WX    TMP DP  RH WIND       PRES   REMARKS
ALGONA *       RAIN      32  32 100 NE9       29.96F WCI  24
CLARION *      CLOUDY    32  32 100 NE13      29.94F FOG     WCI  22
ESTHERVILLE    FRZ RAIN  29  29 100 NE13      29.96F FOG     WCI  19
FORT DODGE *   CLOUDY    32  30  93 CALM      29.95F
MASON CITY     FRZ RAIN  32  30  92 NE12      29.98F FOG     WCI  23
FOREST CITY *  LGT RAIN  32  32 100 E5        29.97F WCI  27
WEBSTER CITY * FOG       34  34 100 NE7       29.92F VSB 3/4 WCI  28
IOWA FALLS *   LGT SNOW  33  32  95 NE6       29.94F WCI  28
$$

IAZ007>011-017>019-026>030-037>042-050>054-066-162100-
   NORTHEAST IOWA

CITY           SKY/WX    TMP DP  RH WIND       PRES   REMARKS
CEDAR RAPIDS   LGT RAIN  33  32  96 E13       29.94F FOG     WCI  24
CHARLES CITY * RAIN      32  32 100 MISG      29.98F
CLINTON *      LGT RAIN  35  34  96 E10       30.02F FOG     WCI  27
DECORAH *      LGT RAIN  32  32 100 E10       30.00F WCI  24
DUBUQUE        MIX PCPN  33  32  96 E7        30.01F FOG     WCI  27
MONTICELLO *   LGT RAIN  34  32  93 VRB6G13   29.99F WCI  29
OELWEIN *      LGT RAIN  34  32  93 E13       29.97F WCI  25
WATERLOO       LGT RAIN  33  31  92 E8        29.96F FOG     WCI  26
$$

IAZ064-065-067-068-078-162100-
   EAST CENTRAL IOWA

CITY           SKY/WX    TMP DP  RH WIND       PRES   REMARKS
DAVENPORT      LGT RAIN  35  34  96 E13       29.99F WCI  26
IOWA CITY      RAIN      35  34  96 E10       29.96F FOG     WCI  27
MUSCATINE *    MIX PCPN  37  36  93 E8        29.97F WCI  31
QUAD CITIES    LGT RAIN  36  34  92 E10       29.99F FOG     WCI  28
$$

IAZ062-063-075>077-085>089-095>099-162100-
   SOUTHEAST IOWA

CITY           SKY/WX    TMP DP  RH WIND       PRES   REMARKS
BURLINGTON     RAIN      37  37 100 E10       29.92F FOG     WCI  30
FAIRFIELD *    CLOUDY    36  36 100 E9G16     29.92F FOG     WCI  29
FORT MADISON * RAIN      37  36  93 CALM      29.95R
KEOKUK *       CLOUDY    37  37 100 SE7       29.93S WCI  32
OSKALOOSA *    LGT RAIN  34  33  97 E12       29.91F WCI  25
CENTERVILLE *  LGT RAIN  34  32  93 CALM      29.90F
OTTUMWA        LGT RAIN  35  34  96 SE8       29.91F FOG     WCI  29
WASHINGTON *   CLOUDY    36  36 100 E12       29.94F FOG     WCI  27
$$

ABBREVIATIONS USED IN REMARKS
   TC - TEMPERATURES IN CELSIUS
  WCI - WIND CHILL INDEX
   HX - HEAT INDEX
  VSB - VISIBILITY
$$




USA.gov is the U.S. government's official web portal to all federal, state and local government web resources and services.